Theta_e
327 328 327 328 329 329 328 327 329 328 331 334 337 336 342 336 335 336 335 338 346 344 343 341 334 334 337 339 346 348 347 346 347 344 342 340 339 338 337 335 336 334 332 332
325 331 330 331 330 330 330 334 328 335 338 337 335 334 340 338 343 344 344 351 348 348 345 342 342 338 335 342 347 348 347 347 347 345 343 341 339 338 336 336 335 333 331 331
324 330 333 329 329 330 335 341 339 332 331 335 339 336 335 339 340 341 341 352 349 349 347 346 345 343 342 345 348 348 349 348 348 346 344 341 341 338 336 336 335 333 328 330
333 332 336 330 329 343 347 346 343 340 338 335 336 334 336 339 337 340 339 348 348 347 346 345 347 351 349 348 348 347 347 346 346 345 344 342 340 338 336 335 333 331 327 328
331 332 330 329 336 337 340 347 343 344 342 340 339 335 333 333 336 331 339 343 347 346 345 345 351 349 347 343 342 339 339 338 338 339 344 343 341 339 336 334 332 330 327 325
326 330 332 328 334 336 338 346 341 340 342 341 339 340 337 332 347 347 345 345 347 347 349 350 346 345 344 342 333 331 331 330 331 333 338 344 342 339 336 333 332 330 327 324
326 328 327 326 325 333 335 330 339 336 337 339 340 336 332 339 343 341 341 340 342 342 340 339 340 343 339 332 330 328 327 329 331 333 338 341 341 338 335 333 330 327 326 323
324 328 328 341 346 340 336 339 336 336 336 338 336 339 346 343 340 337 336 336 336 334 334 335 334 335 328 326 325 325 325 327 329 332 335 338 339 336 334 332 328 324 322 321
321 323 337 340 341 337 337 341 341 337 337 337 340 344 341 340 337 335 335 334 333 332 331 331 331 331 325 323 323 323 324 324 326 328 330 332 333 333 331 329 325 321 320 317
338 341 336 335 338 340 342 345 344 339 337 341 342 338 337 336 333 333 333 332 331 330 328 327 326 326 324 323 322 321 321 321 322 324 325 326 327 327 326 323 322 319 317 316
338 338 337 335 334 336 343 344 344 341 340 339 337 336 335 335 334 334 333 331 330 328 326 325 325 324 323 322 321 320 319 319 320 321 321 320 320 320 320 319 319 318 317 316
337 333 336 338 332 333 337 345 342 341 339 337 335 334 334 334 334 333 331 329 328 327 326 325 324 324 323 322 320 319 317 317 317 318 317 317 317 315 315 315 316 316 316 316
330 330 331 334 336 334 336 340 339 337 336 335 334 333 334 334 334 332 331 329 327 326 326 324 324 324 323 322 320 319 318 317 316 316 316 315 315 316 314 313 313 314 313 314
323 324 327 331 331 332 339 338 337 336 335 334 333 333 333 333 332 331 330 329 327 325 325 323 323 323 323 324 322 321 319 317 316 315 315 315 314 313 311 310 311 311 311 311
321 321 322 322 323 327 333 335 335 333 333 332 333 332 332 331 331 330 329 327 326 325 324 324 323 323 323 323 323 321 320 319 318 317 316 315 314 312 310 308 307 306 307 306
319 320 320 321 321 322 325 330 333 334 332 332 332 332 332 331 331 329 328 327 325 325 324 323 323 323 323 324 324 323 323 321 319 318 318 317 316 314 313 311 308 307 306 305
319 321 320 320 319 320 323 322 323 326 332 332 333 333 333 331 329 327 327 326 326 325 324 323 323 323 323 323 313 313 310 309 310 310 311 312 314 313 313 312 310 309 309 307
318 318 318 318 318 318 319 320 323 326 328 331 333 333 332 329 327 326 326 326 326 325 324 323 324 324 320 314 311 310 310 311 312 312 312 311 311 311 310 310 310 310 309 309
319 318 318 319 320 320 320 321 322 324 327 331 331 330 330 328 327 326 326 326 326 324 324 323 320 315 314 314 310 311 312 312 313 312 314 315 315 315 314 314 313 311 309 309
317 317 317 317 317 320 321 323 324 324 326 331 330 329 328 328 327 326 325 325 324 323 323 320 314 314 316 313 314 315 314 314 315 314 315 315 314 314 314 311 311 313 311 308
317 318 317 317 317 317 320 323 323 323 323 328 329 327 328 328 326 326 325 325 324 324 321 317 314 315 315 314 317 316 315 315 314 313 311 310 310 310 309 309 308 312 309 309
316 317 317 317 316 317 318 320 323 322 323 324 327 326 326 326 326 326 325 325 324 322 321 315 314 315 315 313 316 316 314 313 312 312 312 312 312 311 310 309 308 307 307 307
316 316 316 316 316 316 316 318 320 321 324 326 326 321 321 324 325 324 323 324 324 319 315 314 315 316 313 314 314 312 311 312 312 312 311 310 309 309 309 309 307 306 305 305
317 317 317 317 317 318 316 320 318 320 322 323 323 324 324 322 324 324 323 322 318 315 313 313 315 313 312 311 311 311 311 311 311 311 310 308 308 308 307 306 305 304 303 303
318 317 317 318 318 319 319 317 317 316 317 318 318 319 322 320 319 315 317 315 313 312 314 314 313 311 311 310 310 311 310 310 310 308 308 307 307 307 306 305 304 303 301 300
319 318 320 321 320 319 318 317 316 315 315 313 313 314 314 318 315 311 311 312 312 312 311 311 310 311 312 313 310 309 308 309 308 307 307 306 305 305 304 302 301 300 298 296
318 318 318 317 317 317 316 316 315 314 314 314 313 312 311 311 311 312 313 314 312 311 311 312 313 313 310 309 309 306 307 307 307 306 305 304 303 302 301 300 298 296 295 293
Wind_Speed
4 2 2 1 5 8 5 4 4 11 10 13 11 10 14 14 9 8 13 15 16 8 12 21 27 23 31 28 22 22 22 22 24 20 17 15 13 13 11 10 9 8 8 10
5 4 7 4 8 8 2 6 1 5 4 1 8 3 15 15 12 11 6 12 11 10 13 20 26 27 31 27 24 29 24 23 20 21 20 18 16 11 11 10 9 6 7 10
3 4 5 4 4 3 6 4 3 3 5 8 8 5 7 14 11 6 4 10 10 12 20 24 27 26 26 26 24 21 20 17 19 22 21 22 16 15 14 13 10 7 8 9
2 4 1 6 5 15 13 8 8 11 11 6 4 6 8 6 7 13 11 7 8 12 14 15 15 16 24 26 22 21 19 16 16 17 16 21 20 16 15 14 11 8 8 9
4 2 4 5 3 2 3 3 3 6 8 5 7 7 12 16 11 7 8 7 19 14 25 20 20 24 24 20 20 18 13 10 8 8 10 19 22 19 16 16 13 11 8 8
2 4 6 7 3 4 5 1 8 7 8 9 3 3 9 9 13 16 14 10 19 19 26 29 25 26 14 4 7 11 9 8 6 4 7 12 23 21 18 17 15 14 12 7
2 3 6 6 5 2 2 6 9 4 2 4 5 7 5 6 5 12 16 20 24 20 19 18 22 25 25 25 14 10 7 10 9 9 8 11 18 19 19 18 17 16 11 7
2 3 6 6 4 2 4 3 6 4 0 1 5 5 4 4 1 8 13 19 24 23 19 16 15 21 23 19 14 11 10 11 11 9 9 10 16 17 18 19 18 14 10 7
6 4 2 5 6 4 3 4 5 7 6 3 6 4 4 5 4 5 12 15 17 23 18 12 13 17 22 18 16 15 15 13 11 12 11 11 14 17 20 18 17 13 10 8
3 4 1 3 3 4 7 10 6 10 6 4 4 6 5 5 5 7 12 15 17 19 17 12 10 12 19 17 14 16 16 13 12 12 13 13 12 13 14 14 13 10 8 7
1 3 3 6 5 3 7 12 14 2 3 5 8 6 4 4 5 9 12 13 12 14 16 13 12 15 14 12 14 15 16 14 13 13 14 14 14 12 10 8 7 7 7 7
2 5 3 2 3 5 5 6 10 10 7 4 5 6 8 5 8 11 11 12 12 12 13 12 12 13 13 13 14 18 17 15 16 16 16 15 16 15 12 10 7 6 6 5
3 5 2 3 5 2 2 3 4 4 8 7 6 10 9 5 7 10 12 12 12 12 12 11 11 13 14 13 14 16 18 17 17 17 17 17 15 15 15 10 9 7 5 4
4 6 7 4 1 4 8 11 13 9 9 11 10 9 10 9 9 9 10 10 11 13 12 11 12 13 13 13 13 12 15 16 17 17 17 16 15 14 13 12 12 9 7 6
7 7 5 5 8 6 4 7 6 4 5 6 10 11 13 12 12 13 13 14 13 13 13 13 12 11 13 13 13 15 16 15 14 15 15 15 14 13 11 10 10 10 7 6
6 7 7 7 6 7 8 6 2 4 6 8 11 13 16 15 14 13 13 15 16 14 15 15 14 14 15 12 12 12 14 16 17 15 18 15 16 16 13 11 10 11 10 7
7 4 5 5 7 7 2 3 3 4 10 14 18 16 15 15 19 18 17 16 16 16 16 14 13 17 13 11 9 17 16 16 13 11 9 17 18 17 17 17 17 16 13 11
8 6 8 7 6 7 8 8 3 3 4 10 16 16 14 20 16 18 17 17 16 16 16 14 15 13 13 11 11 13 14 10 7 15 15 13 11 9 10 18 20 20 17 14
14 10 13 12 10 9 10 15 17 10 7 5 9 15 19 17 16 18 16 16 17 17 18 17 14 15 11 8 12 11 11 9 9 15 12 6 6 7 7 6 5 14 18 16
10 12 11 11 13 13 12 16 16 15 12 12 10 10 14 16 19 20 20 18 19 16 19 17 17 11 7 7 5 6 9 9 13 13 11 13 10 8 8 11 9 4 9 13
9 12 7 6 8 11 11 12 13 11 12 6 13 13 18 23 25 24 19 13 14 18 21 15 17 10 9 8 11 16 19 20 20 21 21 19 19 18 16 13 12 12 12 13
12 10 11 10 8 10 10 13 9 10 11 8 11 11 11 17 25 22 19 18 18 22 21 22 17 13 11 13 14 16 17 20 21 19 17 15 13 12 15 16 18 17 20 21
15 15 14 14 15 15 13 11 4 5 4 4 13 14 14 15 21 19 12 20 21 24 22 21 14 11 16 19 20 22 23 20 17 14 13 13 9 7 13 15 17 17 18 18
13 14 14 14 13 12 9 11 6 0 5 7 9 13 15 20 17 20 20 22 25 24 21 21 13 22 21 22 22 20 17 12 9 10 11 10 8 10 17 20 20 16 13 12
14 12 13 14 10 5 6 7 6 8 12 11 9 10 13 15 17 19 23 27 25 24 22 20 26 22 22 20 16 13 13 13 13 10 6 16 19 19 17 16 14 12 9 6
6 6 2 7 5 4 5 6 8 7 12 12 11 13 16 19 20 22 27 29 29 28 25 24 23 19 15 13 17 16 11 10 11 18 18 19 17 14 12 10 7 5 4 5
10 11 11 11 11 12 11 9 12 12 13 16 15 14 22 26 29 27 27 24 23 23 21 16 15 14 17 20 16 16 20 19 19 19 16 14 11 8 6 5 7 9 10 9
Wind_Direction
148 136 88 260 346 339 4 244 169 282 189 207 176 151 172 161 154 188 224 259 234 178 161 164 163 166 174 184 198 201 191 192 198 190 174 164 154 145 133 117 122 129 99 103
7 35 54 4 330 343 309 358 328 62 280 131 78 130 162 193 210 199 197 176 182 137 170 183 176 176 185 191 197 202 200 202 201 182 171 171 159 150 139 132 136 132 106 118
271 345 44 14 307 290 73 6 315 221 327 36 32 15 153 184 180 143 117 130 159 176 172 180 177 179 187 194 192 198 211 197 187 178 175 176 169 171 151 149 151 131 121 127
180 36 291 238 2 106 99 36 17 69 64 56 18 1 302 299 195 179 149 138 200 161 143 170 158 161 164 176 152 148 138 149 163 185 187 185 181 174 157 156 148 137 133 139
135 157 285 353 70 217 143 319 321 102 97 71 51 11 330 299 306 354 119 161 187 174 167 162 145 129 127 125 143 135 132 132 148 169 176 191 189 180 168 161 158 149 139 146
106 157 199 231 160 148 135 258 222 150 149 145 118 51 281 302 323 316 315 160 139 160 147 145 141 131 122 87 145 117 130 119 119 139 181 188 191 181 168 165 164 162 149 146
193 210 284 252 309 106 179 254 182 253 243 56 166 174 220 292 328 36 70 82 107 106 106 132 149 144 154 158 151 133 132 117 107 103 127 161 182 176 164 166 162 156 150 138
111 148 283 318 46 83 236 31 169 195 24 208 214 115 124 182 47 67 80 92 95 91 106 126 137 150 123 125 134 142 130 107 108 112 115 145 160 161 167 167 164 156 150 138
163 193 12 2 105 280 179 173 199 184 176 199 246 182 160 167 114 112 107 105 109 111 115 124 145 150 131 140 147 130 122 119 121 120 118 128 145 158 164 171 161 149 147 135
111 345 18 56 103 71 52 45 22 212 194 200 169 139 176 136 138 123 124 129 129 126 123 128 138 138 133 138 130 126 121 129 132 128 122 121 126 139 146 147 150 152 152 144
64 258 266 15 5 40 78 93 89 60 137 155 155 159 125 101 113 128 138 141 139 131 125 133 131 130 128 131 136 131 134 137 133 131 129 125 123 121 130 135 151 162 158 154
188 243 152 208 290 310 346 135 134 139 138 177 165 133 123 110 126 136 138 138 133 127 126 136 147 145 145 142 147 143 140 140 137 131 128 130 127 117 113 115 121 134 147 160
164 213 115 93 190 290 242 130 105 125 129 136 134 135 133 125 127 137 146 151 154 156 156 156 160 166 164 155 150 149 146 148 144 137 133 130 129 130 129 129 130 132 140 152
90 94 42 54 30 13 105 109 104 102 110 123 146 158 161 155 155 164 162 167 171 167 168 170 180 177 165 169 178 172 161 158 153 149 144 141 141 141 134 133 138 139 139 142
76 86 127 85 41 34 106 118 112 149 141 144 161 180 180 172 176 187 177 167 170 172 175 182 180 175 171 178 176 171 171 176 177 173 171 163 161 161 155 150 146 147 141 149
101 83 64 63 42 50 57 61 147 198 177 179 186 196 198 190 187 182 182 182 173 174 182 182 187 185 177 177 181 195 214 209 208 214 200 193 196 191 189 192 188 187 184 169
99 75 44 28 12 345 19 180 198 189 214 197 206 205 198 194 177 178 180 189 190 186 187 186 189 181 187 190 180 166 167 155 150 155 182 179 190 206 211 212 215 213 211 198
104 110 91 90 56 13 333 320 243 263 218 231 225 206 198 179 180 179 180 189 196 192 186 185 177 182 185 190 187 172 158 164 169 157 161 175 182 198 214 223 229 234 231 218
48 46 38 29 36 39 13 351 334 310 275 221 194 187 188 184 169 179 182 174 174 166 187 183 179 180 181 186 184 181 186 187 193 163 145 148 135 144 99 90 204 235 235 224
23 14 13 17 14 14 3 2 9 5 332 244 208 183 170 168 183 183 177 175 178 184 181 181 176 183 177 147 130 200 210 204 160 140 125 125 105 103 91 86 81 134 209 221
351 346 343 353 336 337 341 349 345 334 339 288 231 211 192 177 176 174 171 169 173 182 177 178 180 183 156 143 132 119 126 128 124 118 112 102 94 91 70 66 62 79 111 115
317 310 309 316 310 312 317 328 324 315 302 294 242 214 190 167 169 177 183 183 179 189 186 182 173 172 171 156 150 142 135 129 120 112 101 92 79 66 77 82 103 108 117 116
297 291 287 293 281 283 289 288 291 306 287 258 209 194 188 228 185 161 180 185 193 185 182 177 162 163 157 149 144 139 133 127 116 98 88 81 74 70 108 117 119 121 116 111
293 290 283 287 289 294 282 280 242 87 67 96 165 186 186 165 169 183 183 168 172 177 178 171 168 165 156 144 138 129 120 113 108 115 119 89 100 119 129 129 126 121 115 112
277 289 292 292 288 276 144 141 93 83 82 82 103 129 151 150 158 158 165 162 160 159 148 162 168 157 140 132 128 123 118 114 116 110 101 127 124 124 127 126 127 127 123 111
269 279 329 83 84 133 157 139 115 105 105 95 97 122 123 127 142 142 144 145 143 135 133 140 140 134 131 128 128 119 121 127 123 126 130 132 132 133 133 128 123 117 121 123
86 85 78 72 75 89 100 103 92 87 106 110 98 101 111 124 128 129 124 128 134 135 140 142 141 134 131 132 116 116 122 122 129 136 135 133 134 135 129 131 133 134 138 150